Location: Achenbacher Furt
(50.8667°N, 7.9833°E)
Time: 23:34:19
(UTC+00:00)

Daily predictions for brighter satellites

Satellite Brightness Start Highest point End
(mag) Time Altitude Azimuth Time Altitude Azimuth Time Altitude Azimuth
ATLAS 2AS CENTAUR R/B 3.7 20:08:20 10° S 20:15:17 35° ESE 20:22:15 10° NE
STARLINK-1211 3.8 20:14:29 10° WNW 20:18:39 76° NNE 20:22:47 10° E
STARLINK-1214 3.2 20:17:05 10° WNW 20:20:15 57° SSW 20:23:26 10° SE
STARLINK-1244 4.1 20:16:35 10° W 20:20:43 64° N 20:24:50 10° E
Landsat 7 3.9 20:17:02 10° SSE 20:21:47 74° ENE 20:26:33 10° N
Cosmos 1242 Rocket 4.1 20:19:14 10° SE 20:22:03 21° E 20:24:53 10° NE
STARLINK-1245 3.8 20:19:26 10° WNW 20:23:36 78° NNE 20:27:46 10° ESE
STARLINK-29 3.8 20:21:27 10° SSW 20:24:19 30° SE 20:27:11 10° E
Okean 1 Rocket 3.5 20:20:05 10° NNW 20:24:29 63° W 20:28:51 10° S
ERS-1 Rocket 3.4 20:19:54 10° SE 20:24:45 51° ENE 20:29:39 10° N
Cosmos 1437 Rocket 4.0 20:21:12 10° SW 20:24:52 43° WNW 20:28:36 10° N
Cosmos 1455 Rocket 3.6 20:20:47 10° N 20:24:56 42° ENE 20:29:04 10° SE
STARLINK-1138 4.1 20:21:35 10° W 20:25:42 63° N 20:29:50 10° E
USA 238 DEB 4.2 20:21:24 10° NW 20:28:28 60° SW 20:35:45 10° SSE
USA 238 4.2 20:21:30 10° NW 20:28:34 61° SW 20:35:52 10° SSE
STARLINK-1233 3.7 20:24:26 10° WNW 20:28:36 81° NNE 20:32:45 10° ESE
STARLINK-1209 3.8 20:27:18 10° WNW 20:30:41 42° SSW 20:34:02 10° SE
STARLINK-1143 4.1 20:26:35 10° W 20:30:42 63° N 20:34:49 10° E
Cosmos 2297 4.4 20:26:17 10° SW 20:31:56 63° NW 20:37:39 10° NNE
Cosmos 968 Rocket 3.7 20:27:34 10° NNW 20:32:43 64° ENE 20:37:47 10° SE
STARLINK-1204 3.7 20:29:24 10° WNW 20:33:34 83° NNE 20:37:44 10° ESE
IGS 5A 3.5 20:30:33 10° SSE 20:34:42 86° WSW 20:38:54 10° NNW
Cosmos 2026 Rocket 4.4 20:28:56 10° SSE 20:34:57 49° E 20:41:04 10° NNE
ATLAS CENTAUR R/B 2.5 20:31:36 10° S 20:35:09 24° ESE 20:38:33 10° ENE
STARLINK-1241 4.1 20:31:35 10° W 20:35:43 63° N 20:39:50 10° E
Okean 2 3.6 20:32:20 10° S 20:36:24 57° E 20:40:31 10° NNE
Cosmos 2369 Rocket 2.3 20:32:27 10° S 20:37:59 59° ESE 20:43:32 10° NE
Cosmos 2227 Rocket 4.5 20:34:47 10° N 20:38:17 16° NNE 20:41:48 10° ENE
STARLINK-1238 3.7 20:34:24 10° WNW 20:38:34 86° NNE 20:42:43 10° ESE
CARTOSAT-1 3.8 20:34:23 10° SSE 20:38:36 59° ENE 20:42:52 10° N
Cosmos 1867 3.7 20:33:11 10° NW 20:38:42 81° NE 20:44:09 10° SE
STARLINK-1239 4.1 20:36:35 10° W 20:40:43 63° N 20:44:50 10° E
STARLINK-1187 3.8 20:37:43 10° WNW 20:40:53 40° SSW 20:43:50 11° SE
Cosmos 1766 3.5 20:37:36 10° NNW 20:41:36 71° W 20:45:34 10° S
STARLINK-1201 3.6 20:39:23 10° WNW 20:43:34 89° NE 20:47:43 10° ESE
STARLINK-1234 4.1 20:41:24 10° WNW 20:44:44 37° SSW 20:47:47 12° SSE
STARLINK-1240 4.1 20:41:32 10° W 20:45:40 64° N 20:49:47 10° E
STARLINK-1357 4.5 20:44:36 10° S 20:46:37 16° SE 20:48:38 10° E
STARLINK-1335 4.5 20:44:54 10° S 20:46:54 16° SE 20:48:56 10° E
STARLINK-1327 4.5 20:45:14 10° S 20:47:15 16° SE 20:49:17 10° E
STARLINK-1340 4.5 20:45:31 10° S 20:47:33 16° SE 20:49:36 10° E
STARLINK-1356 4.5 20:45:52 10° S 20:47:56 16° SE 20:49:59 10° E
STARLINK-1345 4.5 20:46:11 10° S 20:48:15 16° SE 20:50:19 10° E
STARLINK-1206 3.6 20:44:20 10° WNW 20:48:30 88° SSW 20:52:39 10° ESE
STARLINK-1355 4.5 20:46:31 10° S 20:48:35 17° SE 20:50:40 10° E
STARLINK-1321 4.4 20:46:52 10° S 20:48:56 17° SE 20:51:01 10° E
STARLINK-1358 4.4 20:47:13 10° S 20:49:19 17° SE 20:51:25 10° E
STARLINK-1332 4.4 20:47:30 10° S 20:49:36 17° SE 20:51:42 10° E
STARLINK-1348 4.4 20:47:49 10° S 20:49:56 17° SE 20:52:03 10° E
STARLINK-1228 4.2 20:46:39 10° W 20:50:02 35° SW 20:53:00 12° SSE
STARLINK-1330 4.4 20:48:09 10° S 20:50:16 17° SE 20:52:24 10° E
STARLINK-1363 4.4 20:48:28 10° S 20:50:36 17° SE 20:52:43 10° E
STARLINK-1216 4.1 20:46:33 10° W 20:50:40 64° N 20:54:48 10° E
STARLINK-1337 4.4 20:48:49 10° S 20:50:58 17° SE 20:53:07 10° E
Nadezhda 4 Rocket 4.3 20:45:02 10° SSW 20:51:07 69° WNW 20:57:15 10° N
STARLINK-1342 4.4 20:49:08 10° S 20:51:17 17° SE 20:53:26 10° E
STARLINK-1364 4.4 20:49:28 10° S 20:51:37 17° SE 20:53:47 10° E
STARLINK-1376 4.4 20:49:47 10° S 20:51:57 17° SE 20:54:07 10° E
STARLINK-1360 4.4 20:50:07 10° S 20:52:17 18° SE 20:54:28 10° E
STARLINK-1361 4.4 20:50:27 10° S 20:52:38 18° SE 20:54:49 10° E
STARLINK-1367 4.4 20:50:42 10° S 20:52:55 18° SE 20:55:07 10° E
STARLINK-1366 4.4 20:51:04 10° S 20:53:17 18° SE 20:55:29 10° E
STARLINK-1205 3.6 20:49:19 10° WNW 20:53:29 85° SSW 20:57:38 10° ESE
Resurs 01 Rocket 3.6 20:51:12 10° SSW 20:54:53 25° W 20:58:36 10° NW
USA 245 3.7 20:53:15 10° SSW 20:55:31 29° W 20:57:36 10° NW
STARLINK-1237 4.1 20:51:32 10° WNW 20:55:40 65° N 20:59:47 10° E
STARLINK-1218 3.6 20:54:19 10° WNW 20:58:28 81° SSW 21:02:37 10° ESE
STARLINK-52 3.2 20:56:27 10° SW 20:59:33 46° SSE 21:02:39 10° ENE
STARLINK-1202 4.0 20:56:32 10° WNW 21:00:40 65° N 21:04:48 10° E
ATLAS CENTAUR R/B 3.1 21:00:37 10° NNW 21:01:54 16° NNE 21:03:17 10° NE
Cosmos 1544 Rocket 3.6 20:58:10 10° N 21:02:31 73° ENE 21:06:25 13° SSE
CENTAUR R/B 3.4 20:55:13 10° NW 21:03:07 66° SW 21:11:10 12° SSE
SPOT 5 3.2 20:57:53 10° SSE 21:03:08 90° ENE 21:08:33 10° NNW
STARLINK-1254 3.6 20:59:18 10° WNW 21:03:27 78° SSW 21:07:29 11° ESE
Spot 2 Rocket 4.4 20:58:51 10° S 21:03:39 45° W 21:08:31 10° NNW
Cosmos 1378 4.3 21:00:51 10° SSW 21:04:23 42° WNW 21:07:57 10° N
STARLINK-1203 4.0 21:01:17 10° WNW 21:05:26 66° N 21:09:35 10° E
BREEZE-M DEB 3.1 21:03:19 10° SW 21:05:53 47° SSE 21:12:16 10° E
Terra 1.9 21:02:43 13° SSE 21:07:01 74° ENE 21:11:48 10° NNW
STARLINK-1231 3.6 21:04:17 10° WNW 21:08:25 74° SSW 21:12:16 12° ESE
USA 215 4.1 21:02:20 10° E 21:08:40 53° N 21:14:58 10° WNW
NOSS 7 (A) 4.5 21:05:38 10° SW 21:08:48 67° SE 21:11:43 10° NE
STARLINK-1246 4.0 21:06:31 10° WNW 21:10:39 67° N 21:14:47 10° E
ATLAS 3B R/B 2.8 21:04:55 10° NW 21:11:44 85° NE 21:18:06 13° SE
Cosmos 1726 3.2 21:08:41 10° N 21:12:07 33° ENE 21:14:42 15° SE
SAR-Lupe-2 4.4 21:09:13 10° N 21:12:45 52° WNW 21:16:14 10° SSW
STARLINK-1232 3.6 21:09:17 10° WNW 21:13:25 70° SSW 21:17:03 13° ESE
STARLINK-1224 3.9 21:11:29 10° WNW 21:15:38 69° N 21:19:46 10° E
STARLINK-1377 4.5 21:13:16 10° SSW 21:16:38 26° SE 21:20:01 10° E
Cosmos 1503 Rocket 4.1 21:11:44 10° NNW 21:17:06 81° WSW 21:21:37 15° SSE
STARLINK-1208 3.6 21:14:16 10° WNW 21:18:23 67° SSW 21:21:50 14° SE
STARLINK-1444 1.7 21:17:24 10° WSW 21:19:31 89° ESE 21:21:40 10° ENE
Cosmos 1470 2.7 21:16:08 10° NNW 21:20:01 83° W 21:23:07 15° S
STARLINK-1452 1.7 21:18:03 10° WSW 21:20:08 89° W 21:22:17 10° ENE
APEX 4.1 21:14:18 10° SSW 21:20:28 88° WNW 21:25:25 10° NNE
STARLINK-1225 3.9 21:16:29 10° WNW 21:20:38 70° N 21:24:46 10° E
STARLINK-1353 4.4 21:17:28 10° SSW 21:20:55 28° SE 21:24:21 10° E
STARLINK-1392 1.7 21:18:59 10° WSW 21:21:01 89° N 21:23:06 10° ENE
STARLINK-1399 1.7 21:19:00 10° WSW 21:21:03 89° NNW 21:23:09 10° ENE
STARLINK-1393 1.7 21:19:02 10° WSW 21:21:05 88° NNW 21:23:10 10° ENE
STARLINK-1394 1.7 21:19:04 10° WSW 21:21:06 88° NNW 21:23:12 10° ENE
STARLINK-1397 1.7 21:19:06 10° WSW 21:21:08 88° NW 21:23:15 10° ENE
STARLINK-1395 1.7 21:19:08 10° WSW 21:21:09 88° N 21:23:13 10° ENE
STARLINK-1396 1.7 21:19:07 10° WSW 21:21:09 88° NNW 21:23:15 10° ENE
STARLINK-1414 1.7 21:19:08 10° WSW 21:21:10 88° NNW 21:23:15 10° ENE
STARLINK-1408 1.7 21:19:10 10° WSW 21:21:13 88° NNW 21:23:18 10° ENE
STARLINK-1404 1.7 21:19:11 10° WSW 21:21:14 88° N 21:23:20 10° ENE
STARLINK-1416 1.7 21:19:12 10° WSW 21:21:15 88° N 21:23:20 10° ENE
STARLINK-1415 1.7 21:19:12 10° WSW 21:21:16 88° N 21:23:22 10° ENE
STARLINK-1450 1.7 21:19:13 10° WSW 21:21:16 88° NNW 21:23:23 10° ENE
STARLINK-1406 1.7 21:19:17 10° WSW 21:21:18 88° NNW 21:23:23 10° ENE
STARLINK-1401 1.7 21:19:15 10° WSW 21:21:18 88° NNW 21:23:25 10° ENE
STARLINK-1417 1.7 21:19:19 10° WSW 21:21:22 88° NNW 21:23:28 10° ENE
STARLINK-1402 1.7 21:19:20 10° WSW 21:21:23 88° NW 21:23:29 10° ENE
STARLINK-1413 1.7 21:19:20 10° WSW 21:21:23 88° NNW 21:23:30 10° ENE
STARLINK-1419 1.7 21:19:20 10° WSW 21:21:23 88° NNW 21:23:29 10° ENE
STARLINK-1422 1.7 21:19:25 10° WSW 21:21:29 88° N 21:23:35 10° ENE
STARLINK-1453 1.7 21:19:25 10° WSW 21:21:29 88° NNW 21:23:36 10° ENE
STARLINK-1398 1.7 21:19:26 10° WSW 21:21:30 88° NNW 21:23:38 10° ENE
STARLINK-1420 1.7 21:19:28 10° WSW 21:21:32 88° NNW 21:23:39 10° ENE
STARLINK-1440 1.7 21:19:29 10° WSW 21:21:32 88° NNW 21:23:39 10° ENE
STARLINK-1436 (VISORSAT) 1.7 21:19:28 10° WSW 21:21:33 88° NNW 21:23:41 10° ENE
STARLINK-1460 1.7 21:19:31 10° WSW 21:21:34 88° NW 21:23:41 10° ENE
STARLINK-1423 1.7 21:19:37 10° WSW 21:21:39 88° NNW 21:23:46 10° ENE
STARLINK-1421 1.7 21:19:37 10° WSW 21:21:40 88° NNW 21:23:46 10° ENE
STARLINK-1410 1.7 21:19:36 10° WSW 21:21:40 88° N 21:23:46 10° ENE
STARLINK-1400 1.7 21:19:36 10° WSW 21:21:40 88° NNW 21:23:46 10° ENE
STARLINK-1454 1.7 21:19:37 10° WSW 21:21:40 88° NNW 21:23:47 10° ENE
STARLINK-1458 1.7 21:19:39 10° WSW 21:21:42 88° NNW 21:23:49 10° ENE
STARLINK-1445 1.7 21:19:41 10° WSW 21:21:45 88° NNW 21:23:52 10° ENE
Meteor 2-10 4.1 21:16:45 10° N 21:21:46 62° ENE 21:25:44 16° SSE
STARLINK-1446 1.7 21:19:44 10° WSW 21:21:48 87° N 21:23:54 10° ENE
STARLINK-1407 1.7 21:19:44 10° WSW 21:21:48 87° NNW 21:23:54 10° ENE
STARLINK-1405 1.7 21:19:47 10° WSW 21:21:49 87° NNW 21:23:53 10° ENE
STARLINK-1370 1.7 21:19:47 10° WSW 21:21:50 87° NNW 21:23:57 10° ENE
STARLINK-1456 1.7 21:19:47 10° WSW 21:21:50 87° NNW 21:23:57 10° ENE
STARLINK-1457 1.7 21:19:47 10° WSW 21:21:50 87° NNW 21:23:57 10° ENE
STARLINK-1451 1.7 21:19:47 10° WSW 21:21:51 87° NNW 21:23:57 10° ENE
STARLINK-1409 1.7 21:19:48 10° WSW 21:21:51 87° NNW 21:23:58 10° ENE
STARLINK-1439 1.7 21:19:51 10° WSW 21:21:51 87° NNW 21:23:56 10° ENE
STARLINK-1437 1.7 21:19:48 10° WSW 21:21:52 87° NNW 21:23:59 10° ENE
STARLINK-1447 1.7 21:19:48 10° WSW 21:21:52 87° NNW 21:23:59 10° ENE
STARLINK-1455 1.7 21:19:48 10° WSW 21:21:52 87° NNW 21:23:59 10° ENE
STARLINK-1441 1.7 21:19:50 10° WSW 21:21:54 87° NNW 21:24:01 10° ENE
STARLINK-1443 1.7 21:19:52 10° WSW 21:21:56 87° NW 21:24:04 10° ENE
STARLINK-1351 1.7 21:19:55 10° WSW 21:21:58 87° NNW 21:24:05 10° ENE
STARLINK-1418 1.7 21:19:55 10° WSW 21:21:58 87° NNW 21:24:05 10° ENE
STARLINK-1442 1.7 21:19:56 10° WSW 21:21:59 87° NNW 21:24:06 10° ENE
STARLINK-1403 1.7 21:19:55 10° WSW 21:21:59 87° NNW 21:24:06 10° ENE
STARLINK-1434 1.7 21:19:55 10° WSW 21:21:59 87° NNW 21:24:07 10° ENE
STARLINK-1448 1.7 21:19:57 10° WSW 21:22:01 87° NNW 21:24:08 10° ENE
STARLINK-1433 1.7 21:19:58 10° WSW 21:22:02 87° NW 21:24:09 10° ENE
STARLINK-1449 1.7 21:20:00 10° WSW 21:22:04 87° N 21:24:11 10° ENE
STARLINK-1438 1.7 21:20:04 10° WSW 21:22:07 87° NNW 21:24:13 10° ENE
STARLINK-1412 1.7 21:20:10 10° WSW 21:22:13 87° NW 21:24:20 10° ENE
STARLINK-1411 1.7 21:20:10 10° WSW 21:22:14 87° NNW 21:24:20 10° ENE
BREEZE-M DEB (TANK) 3.7 21:07:46 10° WSW 21:22:57 69° S 21:26:53 10° E
STARLINK-1271 3.7 21:19:14 10° WNW 21:23:21 63° SSW 21:26:37 16° SE
STARLINK-1375 4.3 21:21:43 10° SSW 21:25:13 30° SE 21:28:45 10° E
STARLINK-1230 3.9 21:21:27 10° WNW 21:25:36 72° NNE 21:29:44 10° E
BREEZE-M DEB (TANK) 4.0 21:19:31 10° SSW 21:25:41 22° SSE 21:28:42 10° ESE
FALCON 9 DEB 3.2 21:22:46 10° SW 21:26:07 51° SSE 21:29:27 10° ENE
SeaSat 1 4.3 21:23:50 10° ENE 21:26:15 13° ESE 21:27:49 12° ESE
STARLINK-60 3.1 21:24:24 10° WSW 21:27:34 75° NNW 21:30:46 10° ENE
BREEZE-M DEB (TANK) 2.8 21:23:37 10° W 21:27:41 71° S 21:31:23 10° ESE
STARLINK-1154 3.7 21:24:12 10° WNW 21:28:17 60° SSW 21:31:22 17° SE
Cosmos 1340 Rocket 3.2 21:25:22 10° N 21:29:23 54° ENE 21:32:10 19° SSE
STARLINK-1350 4.2 21:25:56 10° SSW 21:29:30 32° SE 21:33:05 10° E
Cosmos 1174 3.6 21:26:27 11° SSW 21:29:31 51° ESE 21:33:19 10° NE
STARLINK-1243 3.8 21:26:27 10° WNW 21:30:37 73° NNE 21:34:45 10° E
COSMOS 2455 3.0 21:25:21 10° SSW 21:31:10 55° ESE 21:37:04 10° NE
STARLINK-1197 3.8 21:29:12 10° WNW 21:33:16 56° SSW 21:36:10 18° SE
Cosmos 1842 4.2 21:29:48 10° SSW 21:33:32 45° WNW 21:37:18 10° N
STARLINK-1352 4.1 21:30:12 10° SSW 21:33:48 34° SE 21:37:27 10° E
COSMOS 2487 2.4 21:30:35 10° NNW 21:34:04 81° WSW 21:36:14 21° SSE
Cosmos 1025 Rocket 3.0 21:30:39 15° S 21:34:08 70° E 21:38:28 10° NNE
STARLINK-1236 3.8 21:31:25 10° WNW 21:35:35 75° NNE 21:39:44 10° E
Cosmos 1975 Rocket 4.2 21:32:47 10° SW 21:36:58 42° WNW 21:41:10 10° N
NOSS 3-4 (A) 3.4 21:31:35 10° SW 21:37:32 77° SE 21:43:58 10° NE
NOSS 3-4 (C) 3.4 21:31:41 10° SW 21:37:38 77° SE 21:44:04 10° NE
STARLINK-1198 3.8 21:34:11 10° WNW 21:38:14 53° SSW 21:40:57 19° SE
STARLINK-1368 4.1 21:34:33 10° SSW 21:38:14 36° SE 21:41:56 10° ENE
Cosmos 1354 Rocket 4.3 21:34:17 10° NNW 21:39:31 61° WSW 21:43:37 17° S
Cosmos 2263 4.4 21:33:57 10° SW 21:39:32 73° WNW 21:45:12 10° NNE
ALOS 2 4.3 21:37:12 11° ESE 21:40:32 23° ENE 21:44:01 10° N
Aureole 3 3.6 21:38:00 10° N 21:40:52 34° ENE 21:42:17 22° SE
MTI 3.6 21:38:23 10° NNE 21:41:32 83° E 21:43:39 19° S
Cosmos 292 Rocket 4.5 21:37:02 10° SW 21:41:48 56° WNW 21:46:37 10° NNE
STARLINK-1369 4.0 21:38:53 10° SW 21:42:37 38° SE 21:46:22 10° ENE
STARLINK-1199 3.9 21:39:10 10° WNW 21:43:11 50° SSW 21:45:43 21° SE
ATLAS 5 CENTAUR R/B 2.1 21:39:47 10° SSW 21:44:22 34° SE 21:46:35 10° ENE
EXPRESS MD2 3.9 21:40:39 10° W 21:44:27 82° S 21:52:19 10° E
Cosmos 1953 2.2 21:40:47 10° N 21:44:47 83° ENE 21:47:21 21° SSE
RESURS DK-1 3.1 21:42:39 20° SSE 21:44:49 34° ESE 21:48:35 10° NE
ERBS 3.8 21:41:48 10° NW 21:44:55 35° NNE 21:48:01 10° E
STARLINK-1269 3.7 21:41:24 10° WNW 21:45:34 80° NNE 21:49:43 10° ESE
Cosmos 2297 Rocket 3.4 21:40:32 10° NNW 21:45:43 35° NE 21:50:52 10° ESE
Cosmos 1943 Rocket 3.6 21:41:17 10° WSW 21:46:31 40° NW 21:51:49 10° NNE
Cosmos 1271 Rocket 3.1 21:42:54 11° SSW 21:46:36 67° WNW 21:50:35 10° N
STARLINK-1372 3.9 21:43:12 10° SW 21:46:58 40° SSE 21:50:45 10° ENE
Cosmos 1626 4.4 21:46:19 10° ESE 21:47:41 12° E 21:49:11 10° ENE
STARLINK-1210 4.0 21:44:10 10° WNW 21:48:09 47° SSW 21:50:30 22° SSE
Cosmos 1992 Rocket 4.1 21:43:34 10° SSW 21:48:46 78° WNW 21:54:01 10° NNE
Lacrosse 4 Rocket 3.7 21:46:18 10° NNW 21:49:38 21° NE 21:52:53 10° E
Cosmos 2219 4.1 21:44:16 10° NNW 21:49:40 42° NE 21:54:40 12° ESE
STARLINK-1200 3.7 21:46:22 10° WNW 21:50:32 82° NNE 21:54:41 10° ESE
STARLINK-1378 3.8 21:47:34 10° SW 21:51:23 43° SSE 21:55:13 10° ENE
Cosmos 2228 3.8 21:47:27 10° N 21:51:29 40° ENE 21:54:03 20° SE
STARLINK-1219 4.1 21:49:11 10° WNW 21:53:08 44° SSW 21:55:19 23° SSE
Spot 4 4.2 21:50:03 19° SE 21:53:25 56° ENE 21:58:10 10° N
Cosmos 921 Rocket 4.5 21:52:46 18° SE 21:54:27 22° E 21:57:52 10° NE
SL-4 R/B 2.4 21:49:56 10° WSW 21:54:44 89° N 21:59:37 10° E
STARLINK-1192 3.6 21:51:22 10° WNW 21:55:32 85° NNE 21:59:41 10° ESE
STARLINK-1379 3.8 21:51:59 10° SW 21:55:50 45° SSE 21:59:42 10° ENE
Cosmos 1242 Rocket 4.1 21:53:21 10° SW 21:56:44 34° WNW 22:00:08 10° N
STARLINK-1211 4.2 21:54:10 10° WNW 21:58:06 41° SSW 22:00:05 24° SSE
Cosmos 1707 3.0 21:55:20 15° SSW 21:58:30 65° WNW 22:02:22 10° N
STARLINK-1329 3.7 21:55:41 10° SW 21:59:34 47° SSE 22:03:28 10° ENE
STARLINK-29 3.1 21:57:02 10° WSW 22:00:16 77° NNW 22:03:28 10° ENE
STARLINK-1244 3.6 21:56:20 10° WNW 22:00:30 88° NNE 22:04:30 11° ESE
STARLINK-1245 4.2 21:59:09 10° WNW 22:03:02 39° SW 22:04:51 25° SSE
EO 1 Del DPAF 3.6 21:59:28 10° NNE 22:03:08 47° E 22:04:56 26° SSE
STARLINK-1362 3.7 22:00:08 10° SW 22:04:04 50° SSE 22:07:59 10° ENE
SL-4 R/B 2.7 22:03:43 16° E 22:04:09 16° ENE 22:05:39 10° NNE
Meteor 2-15 4.4 21:58:57 10° N 22:05:07 83° E 22:09:27 21° SSE
Timation 2 Rocket 3.9 21:59:05 10° NNW 22:05:26 89° WSW 22:09:47 20° SSE
Cosmos 1656 Rocket 4.1 21:59:52 10° SW 22:05:26 65° WNW 22:10:58 10° NNE
STARLINK-1138 3.6 22:01:18 10° WNW 22:05:28 89° SSW 22:09:16 12° ESE
ATLAS 2AS CENTAUR R/B 3.2 21:57:46 10° SW 22:05:48 79° NW 22:13:44 10° NE
STARLINK-1233 4.3 22:04:10 10° WNW 22:07:59 36° SW 22:09:38 26° S
STARLINK-1373 3.6 22:04:38 10° SW 22:08:34 53° SSE 22:12:31 10° ENE
STARLINK-1143 3.5 22:06:18 10° WNW 22:10:28 86° SSW 22:14:04 14° ESE
Cosmos 1726 Rocket 3.9 22:07:30 10° N 22:11:46 53° ENE 22:14:12 23° SE
Meteor 1-16 Rocket 4.2 22:06:36 10° NNW 22:12:04 73° W 22:15:41 21° S
STARLINK-1204 4.4 22:09:09 10° WNW 22:12:56 34° SW 22:14:24 26° S
STARLINK-1390 3.6 22:09:08 10° SW 22:13:06 56° SSE 22:17:04 10° ENE
ATLAS CENTAUR R/B 2.1 22:09:36 10° WSW 22:13:51 55° NW 22:17:50 10° NE
BREEZE-M R/B 4.5 22:05:23 10° SW 22:14:27 40° SSE 22:18:57 10° E
STARLINK-1241 3.5 22:11:18 10° WNW 22:15:27 82° SSW 22:18:51 15° ESE
STARLINK-1320 2.7 22:12:27 10° WSW 22:15:32 66° SSE 22:18:40 10° ENE
STARLINK-1322 2.7 22:12:48 10° WSW 22:15:53 66° SSE 22:19:00 10° ENE
STARLINK-1324 2.7 22:13:07 10° WSW 22:16:13 66° SSE 22:19:19 10° ENE
STARLINK-1294 2.7 22:13:26 10° WSW 22:16:31 67° SSE 22:19:38 10° ENE
Cosmos 1892 Rocket 4.5 22:14:31 22° SE 22:16:34 35° E 22:20:32 10° NNE
STARLINK-1261 2.7 22:13:48 10° WSW 22:16:54 67° SSE 22:20:01 10° ENE
STARLINK-1325 2.7 22:14:09 10° WSW 22:17:15 67° SSE 22:20:22 10° ENE
S3M 4.4 22:11:17 10° NNW 22:17:20 56° W 22:22:10 17° SSW
STARLINK-1333 2.7 22:14:32 10° WSW 22:17:38 68° SSE 22:20:44 10° ENE
Cosmos 2098 Rocket 4.5 22:12:13 19° S 22:17:43 68° E 22:24:57 10° NNE
STARLINK-1334 2.7 22:14:48 10° WSW 22:17:55 68° SSE 22:21:01 10° ENE
STARLINK-1326 2.7 22:15:08 10° WSW 22:18:14 68° SSE 22:21:20 10° ENE
STARLINK-1323 2.7 22:15:30 10° WSW 22:18:36 68° SSE 22:21:43 10° ENE
STARLINK-1349 2.7 22:15:48 10° WSW 22:18:54 69° SSE 22:22:01 10° ENE
STARLINK-1365 3.5 22:14:52 10° SW 22:18:54 61° SSE 22:22:58 10° ENE
SJ 16-02 2.9 22:15:12 10° N 22:19:08 30° NE 22:22:33 13° ESE
STARLINK-1336 2.7 22:16:08 10° WSW 22:19:14 69° SSE 22:22:21 10° ENE
STARLINK-1331 2.7 22:16:31 10° WSW 22:19:37 69° SSE 22:22:44 10° ENE
STARLINK-1344 2.7 22:16:49 10° WSW 22:19:55 70° SSE 22:23:02 10° ENE
STARLINK-1343 2.7 22:17:11 10° WSW 22:20:18 70° SSE 22:23:25 10° ENE
STARLINK-1239 3.5 22:16:17 10° WNW 22:20:26 79° SSW 22:23:39 16° ESE
STARLINK-1346 2.7 22:17:28 10° WSW 22:20:35 70° SSE 22:23:44 10° ENE
STARLINK-1328 2.7 22:17:54 10° WSW 22:21:00 71° SSE 22:24:07 10° ENE
STARLINK-1354 2.7 22:18:12 10° WSW 22:21:18 71° SSE 22:24:25 10° ENE
STARLINK-1347 2.7 22:18:28 10° WSW 22:21:35 71° SSE 22:24:42 10° ENE
STARLINK-1357 2.7 22:18:54 10° WSW 22:22:01 72° SSE 22:25:08 10° ENE
Cosmos 2315 Rocket 4.0 22:16:03 10° N 22:22:18 86° E 22:26:32 22° S
STARLINK-1335 2.7 22:19:12 10° WSW 22:22:18 72° SSE 22:25:25 10° ENE
Cosmos 2369 Rocket 4.0 22:17:18 10° WSW 22:22:21 32° NW 22:27:25 10° NNE
STARLINK-1327 2.7 22:19:33 10° WSW 22:22:39 72° SSE 22:25:47 10° ENE
STARLINK-1340 2.7 22:19:51 10° WSW 22:22:57 73° SSE 22:26:04 10° ENE
STARLINK-1356 2.7 22:20:13 10° WSW 22:23:19 73° SSE 22:26:28 10° ENE
STARLINK-1345 2.7 22:20:32 10° WSW 22:23:39 73° SSE 22:26:46 10° ENE
Cosmos 2227 Rocket 2.8 22:18:11 10° NNW 22:23:45 52° NE 22:28:23 15° SE
Cosmos 1437 4.5 22:23:34 17° ESE 22:24:00 17° E 22:26:06 10° NE
STARLINK-1355 2.7 22:20:53 10° WSW 22:24:00 74° SSE 22:27:07 10° ENE
STARLINK-1321 2.7 22:21:14 10° WSW 22:24:20 74° SSE 22:27:28 10° ENE
BREEZE-M DEB (TANK) 4.4 22:20:04 10° WSW 22:24:23 72° SSE 22:41:34 10° E
STARLINK-1358 2.7 22:21:37 10° WSW 22:24:44 74° SSE 22:27:51 10° ENE
STARLINK-1332 2.7 22:21:54 10° WSW 22:25:01 75° SSE 22:28:08 10° ENE
STARLINK-1348 2.7 22:22:14 10° WSW 22:25:21 75° SSE 22:28:29 10° ENE
STARLINK-1240 3.5 22:21:14 10° WNW 22:25:23 75° SSW 22:28:23 18° ESE
STARLINK-1330 2.7 22:22:34 10° WSW 22:25:41 75° SSE 22:28:49 10° ENE
STARLINK-1363 2.7 22:22:54 10° WSW 22:26:01 75° SSE 22:29:08 10° ENE
STARLINK-1337 2.7 22:23:16 10° WSW 22:26:23 76° SSE 22:29:30 10° ENE
STARLINK-1342 2.7 22:23:35 10° WSW 22:26:42 76° SSE 22:29:50 10° ENE
STARLINK-1364 2.7 22:23:56 10° WSW 22:27:03 76° SSE 22:30:10 10° ENE
STARLINK-1376 2.7 22:24:16 10° WSW 22:27:22 77° SSE 22:30:30 10° ENE
Meteor 2-15 Rocket 4.4 22:21:20 10° NNW 22:27:30 85° W 22:31:36 22° S
STARLINK-1360 2.7 22:24:36 10° WSW 22:27:43 77° SSE 22:30:51 10° ENE
STARLINK-1361 2.7 22:24:57 10° WSW 22:28:04 77° SSE 22:31:11 10° ENE
STARLINK-1367 2.7 22:25:13 10° WSW 22:28:20 77° SSE 22:31:30 10° ENE
STARLINK-1366 2.7 22:25:36 10° WSW 22:28:42 78° SSE 22:31:51 10° ENE
STARLINK-1338 3.4 22:25:44 10° WSW 22:29:41 68° SSE 22:33:39 10° ENE
STARLINK-1216 3.5 22:26:14 10° WNW 22:30:22 72° SSW 22:33:11 20° ESE
Cosmos 1908 3.4 22:31:01 10° NNW 22:34:48 64° W 22:36:36 29° S
STARLINK-1237 3.5 22:31:12 10° WNW 22:35:20 68° SSW 22:37:58 21° SE
STARLINK-52 3.4 22:32:27 10° W 22:35:39 63° N 22:38:50 10° ENE
Cosmos 1777 Rocket 4.4 22:31:45 10° NNW 22:36:51 53° WSW 22:39:51 24° S
Cosmos 2084 3.5 22:33:16 10° SW 22:37:43 85° NW 22:42:14 10° NE
SL-14 R/B 4.0 22:36:22 27° SE 22:37:48 38° E 22:41:24 10° NNE
STARLINK-1371 3.4 22:34:07 10° WSW 22:38:04 74° SSE 22:42:03 10° ENE
STARLINK-1202 3.6 22:36:12 10° WNW 22:40:19 65° SSW 22:42:45 23° SE
STARLINK-1341 3.4 22:38:26 10° WSW 22:42:25 78° SSE 22:46:25 10° ENE
KORONAS-FOTON 3.9 22:42:06 27° SSW 22:44:06 73° WNW 22:48:00 10° N
STARLINK-1203 3.6 22:41:00 10° WNW 22:45:06 61° SSW 22:47:23 25° SE
Terra 4.0 22:42:17 10° SW 22:45:20 17° W 22:48:23 10° NW
Thor Agena Rocket 3.8 22:40:25 10° NNE 22:45:41 69° WNW 22:49:40 17° SSW
STARLINK-1374 3.4 22:42:42 10° WSW 22:46:42 81° SSE 22:50:42 10° ENE
Cosmos 1726 4.0 22:44:13 10° NW 22:47:09 22° W 22:49:12 14° SW
Cosmos 1300 2.9 22:43:45 10° N 22:47:32 60° ENE 22:49:12 30° SE
Meteor 2-5 Rocket 3.7 22:46:11 24° S 22:49:41 80° E 22:55:24 10° NNE
STARLINK-1246 3.7 22:46:10 10° WNW 22:50:15 58° SSW 22:52:19 27° SE
STARLINK-1339 3.4 22:47:00 10° WSW 22:51:00 84° SSE 22:55:00 10° ENE
USA 215 3.4 22:44:48 10° ESE 22:51:21 79° NNE 22:57:55 10° WNW
Cosmos 2266 Rocket 4.4 22:47:46 15° SSW 22:52:46 55° WNW 22:58:41 10° N
STARLINK-1444 3.2 22:51:27 10° WNW 22:53:32 42° N 22:55:40 10° ENE
Cosmos 2292 Rocket 4.2 22:51:50 19° SW 22:53:34 31° WNW 22:56:17 10° N
STARLINK-1452 3.2 22:52:06 10° WNW 22:54:09 42° N 22:56:16 10° ENE
STARLINK-1392 3.2 22:52:58 10° WNW 22:54:58 41° N 22:57:03 10° ENE
STARLINK-1399 3.2 22:53:00 10° WNW 22:55:01 41° N 22:57:06 10° ENE
STARLINK-1393 3.2 22:53:02 10° WNW 22:55:02 41° N 22:57:07 10° ENE
STARLINK-1394 3.2 22:53:04 10° WNW 22:55:04 41° N 22:57:09 10° ENE
STARLINK-1395 3.2 22:53:08 10° WNW 22:55:08 41° N 22:57:08 10° ENE
STARLINK-1397 3.2 22:53:06 10° WNW 22:55:08 41° N 22:57:12 10° ENE
STARLINK-1396 3.2 22:53:07 10° WNW 22:55:08 41° N 22:57:13 10° ENE
STARLINK-1414 3.2 22:53:08 10° WNW 22:55:08 41° N 22:57:12 10° ENE
STARLINK-1408 3.2 22:53:11 10° WNW 22:55:11 41° N 22:57:15 10° ENE
STARLINK-1224 3.7 22:51:08 10° WNW 22:55:12 54° SSW 22:57:04 29° SE
STARLINK-1404 3.2 22:53:12 10° WNW 22:55:13 41° N 22:57:18 10° ENE
STARLINK-1416 3.2 22:53:13 10° WNW 22:55:14 41° N 22:57:18 10° ENE
STARLINK-1415 3.2 22:53:13 10° WNW 22:55:15 41° N 22:57:20 10° ENE
STARLINK-1450 3.2 22:53:15 10° WNW 22:55:16 41° N 22:57:22 10° ENE
STARLINK-1406 3.2 22:53:17 10° WNW 22:55:16 41° N 22:57:21 10° ENE
STARLINK-1401 3.2 22:53:16 10° WNW 22:55:18 41° N 22:57:23 10° ENE
STARLINK-1377 3.4 22:51:20 10° WSW 22:55:20 87° SSE 22:59:21 10° ENE
STARLINK-1417 3.2 22:53:20 10° WNW 22:55:21 41° N 22:57:27 10° ENE
STARLINK-1402 3.2 22:53:21 10° WNW 22:55:23 41° N 22:57:28 10° ENE
STARLINK-1413 3.2 22:53:21 10° WNW 22:55:23 41° N 22:57:28 10° ENE
STARLINK-1419 3.2 22:53:22 10° WNW 22:55:23 41° N 22:57:28 10° ENE
STARLINK-1422 3.2 22:53:27 10° WNW 22:55:28 41° N 22:57:33 10° ENE
STARLINK-1453 3.2 22:53:27 10° WNW 22:55:29 42° N 22:57:35 10° ENE
STARLINK-1398 3.2 22:53:28 10° WNW 22:55:31 42° N 22:57:37 10° ENE
Cosmos 1674 3.3 22:53:25 23° SW 22:55:32 49° WNW 22:59:16 10° N
STARLINK-1420 3.2 22:53:31 10° WNW 22:55:32 42° N 22:57:38 10° ENE
STARLINK-1436 (VISORSAT) 3.2 22:53:32 10° WNW 22:55:34 42° N 22:57:41 10° ENE
STARLINK-1440 3.2 22:53:32 10° WNW 22:55:34 42° N 22:57:40 10° ENE
STARLINK-1460 3.2 22:53:33 10° WNW 22:55:36 42° N 22:57:41 10° ENE
STARLINK-1410 3.2 22:53:38 10° WNW 22:55:39 42° N 22:57:45 10° ENE
STARLINK-1423 3.2 22:53:39 10° WNW 22:55:40 41° N 22:57:45 10° ENE
STARLINK-1421 3.2 22:53:39 10° WNW 22:55:40 41° N 22:57:45 10° ENE
STARLINK-1400 3.2 22:53:38 10° WNW 22:55:40 42° N 22:57:46 10° ENE
STARLINK-1454 3.2 22:53:39 10° WNW 22:55:41 42° N 22:57:47 10° ENE
STARLINK-1458 3.2 22:53:42 10° WNW 22:55:43 41° N 22:57:48 10° ENE
STARLINK-1445 3.2 22:53:44 10° WNW 22:55:46 42° N 22:57:52 10° ENE
STARLINK-1407 3.2 22:53:46 10° WNW 22:55:48 42° N 22:57:54 10° ENE
STARLINK-1446 3.2 22:53:47 10° WNW 22:55:48 42° N 22:57:54 10° ENE
STARLINK-1405 3.2 22:53:50 10° WNW 22:55:49 41° N 22:57:51 10° ENE
STARLINK-1370 3.2 22:53:49 10° WNW 22:55:51 42° N 22:57:56 10° ENE
STARLINK-1456 3.2 22:53:51 10° WNW 22:55:52 41° N 22:57:57 10° ENE
STARLINK-1457 3.2 22:53:51 10° WNW 22:55:52 41° N 22:57:57 10° ENE
STARLINK-1451 3.2 22:53:51 10° WNW 22:55:52 41° N 22:57:57 10° ENE
STARLINK-1439 3.2 22:53:53 10° WNW 22:55:52 41° N 22:57:55 10° ENE
STARLINK-1409 3.2 22:53:52 10° WNW 22:55:52 41° N 22:57:58 10° ENE
STARLINK-1447 3.2 22:53:52 10° WNW 22:55:54 42° N 22:57:59 10° ENE
STARLINK-1455 3.2 22:53:52 10° WNW 22:55:54 42° N 22:57:59 10° ENE
STARLINK-1437 3.2 22:53:53 10° WNW 22:55:54 41° N 22:57:59 10° ENE
STARLINK-1441 3.2 22:53:54 10° WNW 22:55:56 42° N 22:58:01 10° ENE
STARLINK-1443 3.2 22:53:56 10° WNW 22:55:58 42° N 22:58:05 10° ENE
STARLINK-1351 3.2 22:53:59 10° WNW 22:56:00 42° N 22:58:06 10° ENE
STARLINK-1418 3.2 22:53:59 10° WNW 22:56:00 42° N 22:58:06 10° ENE
STARLINK-1403 3.2 22:53:58 10° WNW 22:56:01 42° N 22:58:07 10° ENE
STARLINK-1434 3.2 22:53:58 10° WNW 22:56:01 42° N 22:58:07 10° ENE
STARLINK-1442 3.2 22:53:59 10° WNW 22:56:01 42° N 22:58:07 10° ENE
STARLINK-1448 3.2 22:54:01 10° WNW 22:56:03 42° N 22:58:09 10° ENE
STARLINK-1433 3.2 22:54:02 10° WNW 22:56:03 42° N 22:58:10 10° ENE
STARLINK-1449 3.2 22:54:03 10° WNW 22:56:06 42° N 22:58:12 10° ENE
STARLINK-1438 3.2 22:54:07 10° WNW 22:56:08 41° N 22:58:14 10° ENE
STARLINK-1411 3.2 22:54:14 10° WNW 22:56:15 42° N 22:58:21 10° ENE
STARLINK-1412 3.2 22:54:14 10° WNW 22:56:16 42° N 22:58:22 10° ENE
STARLINK-1353 3.4 22:55:39 10° WSW 22:59:39 90° SSE 23:03:41 10° ENE
STARLINK-1225 3.8 22:56:09 10° WNW 23:00:11 51° SSW 23:01:53 30° SSE
ATLAS 3B R/B 3.9 22:56:17 10° WNW 23:01:46 26° WSW 23:05:21 18° SSW
FALCON 9 DEB 3.6 22:59:43 10° W 23:03:08 64° N 23:06:34 10° ENE
STARLINK-60 3.5 23:00:42 10° WNW 23:03:51 58° N 23:07:00 10° E
STARLINK-1375 3.5 23:00:00 10° WSW 23:04:01 88° NNW 23:08:02 10° ENE
SeaSat 1 2.4 22:59:32 10° NNE 23:04:30 77° ESE 23:07:35 23° SSW
STARLINK-1230 3.8 23:01:07 10° WNW 23:05:08 48° SSW 23:06:38 32° SSE
Cosmos 2058 Rocket 3.2 23:03:17 10° NNW 23:07:44 68° W 23:09:53 29° S
BREEZE M DEB (TANK) 3.3 23:05:43 10° W 23:06:46 22° W 23:06:46 22° W
STARLINK-1350 3.5 23:04:19 10° WSW 23:08:20 85° NNW 23:12:22 10° ENE
Meteor 2-21 4.5 23:04:49 24° S 23:08:48 90° ESE 23:15:05 10° N
STARLINK-1243 3.9 23:06:08 10° WNW 23:10:07 45° SSW 23:11:27 33° SSE
Helios 1B rocket 4.0 23:09:02 10° NE 23:12:26 24° E 23:14:04 19° SE
Cosmos 1980 Rocket 3.9 23:10:05 14° SE 23:12:35 19° E 23:16:22 10° ENE
STARLINK-1352 3.5 23:08:37 10° WSW 23:12:38 82° NNW 23:16:40 10° ENE
STARLINK-1236 4.0 23:11:07 10° WNW 23:15:03 42° SSW 23:16:12 34° S
Cosmos 1244 Rocket 4.5 23:12:34 24° SSW 23:16:34 84° W 23:22:45 10° N
ALOS 2 3.1 23:14:35 28° SSW 23:16:36 49° W 23:20:53 10° NNW
STARLINK-1368 3.6 23:13:08 10° WSW 23:17:10 80° NNW 23:21:12 10° ENE
COSMOS 2455 4.1 23:11:42 10° WSW 23:17:21 40° NW 23:23:03 10° NNE
Cosmos 1745 Rocket 4.2 23:16:47 24° SSE 23:20:28 59° E 23:26:29 10° NNE
ERBS 2.2 23:18:04 10° WNW 23:21:23 63° SW 23:22:16 42° SSE
STARLINK-1369 3.6 23:17:33 10° WSW 23:21:35 78° NNW 23:25:37 10° ENE
Cosmos 1626 2.3 23:20:51 32° SSW 23:22:25 64° WNW 23:26:08 10° N
RESURS DK-1 3.9 23:19:05 10° WSW 23:22:51 33° NW 23:26:39 10° NNE
Cosmos 1455 3.5 23:19:43 10° N 23:23:08 32° ENE 23:25:11 19° SE
Cosmos 1937 Rocket 3.8 23:18:02 10° NNW 23:23:18 67° ENE 23:27:02 20° SE
Cosmos 1812 Rocket 3.9 23:20:16 10° N 23:24:41 58° ENE 23:27:04 25° SSE
STARLINK-1269 4.2 23:21:07 10° WNW 23:24:58 37° SW 23:25:46 34° S
Cosmos 2263 Rocket 4.0 23:20:44 10° NNW 23:25:37 29° NE 23:30:27 10° ESE
STARLINK-1372 3.7 23:21:53 10° W 23:25:53 76° NNW 23:29:55 10° ENE
STARLINK-43 3.8 23:26:08 37° SSE 23:26:28 38° SSE 23:29:55 10° ENE
Lacrosse 4 Rocket 1.3 23:24:32 10° NW 23:28:53 83° WSW 23:31:03 28° SSE
STARLINK-1200 4.2 23:26:07 10° WNW 23:29:54 35° SW 23:30:32 33° SSW
Cosmos 2297 Rocket 2.5 23:24:32 10° NW 23:30:01 53° WSW 23:32:58 26° S
STARLINK-1378 3.7 23:26:24 10° W 23:30:26 74° NNW 23:34:27 10° ENE
Meteor 1-24 Rocket 3.9 23:27:06 23° SSW 23:30:32 67° WNW 23:36:08 10° N
Cosmos 1656 3.7 23:27:54 25° SSW 23:31:15 73° ESE 23:36:50 10° NNE
Cosmos 1898 Rocket 3.5 23:26:44 10° NNW 23:32:06 82° WSW 23:35:13 25° SSE
Cosmos 921 Rocket 3.8 23:29:32 18° SW 23:32:27 46° WNW 23:36:43 10° NNE
SL-4 R/B 3.2 23:33:28 13° W 23:33:28 13° W 23:34:13 10° WNW
Cosmos 2219 3.8 23:28:34 10° NW 23:33:51 42° WSW 23:36:34 25° SSW
CZ-4C R/B 2.3 23:31:35 27° S 23:34:14 55° SE 23:40:08 10° NE
SL-4 R/B 2.4 23:29:46 10° W 23:34:39 87° NNE 23:39:28 10° E
STARLINK-1192 4.3 23:31:09 10° W 23:34:53 33° SW 23:35:20 32° SSW
STARLINK-1379 3.8 23:30:54 10° W 23:34:55 72° NNW 23:38:58 10° ENE
STARLINK-29 3.6 23:33:24 10° WNW 23:36:36 57° N 23:39:46 10° E
Cosmos 1602 Rocket 3.7 23:35:23 30° SSE 23:37:20 63° E 23:41:39 10° NNE
STARLINK-28 4.4 23:39:11 24° ESE 23:39:11 24° ESE 23:41:12 10° E
STARLINK-1329 3.8 23:34:40 10° W 23:38:42 71° NNW 23:42:44 10° ENE
STARLINK-1244 4.4 23:36:08 10° W 23:39:48 31° SW 23:40:06 30° SSW
Cosmos 990 Rocket 4.0 23:36:31 10° NNW 23:41:45 67° WSW 23:44:36 27° S
PSLV R/B 4.1 23:37:33 10° NNE 23:41:52 48° E 23:43:52 27° SSE
STARLINK-1362 3.8 23:39:11 10° W 23:43:14 70° N 23:47:16 10° ENE
Cosmos 1386 Rocket 4.5 23:39:47 25° S 23:43:35 79° E 23:49:53 10° NNE
ATLAS CENTAUR R/B 1.9 23:41:35 10° WNW 23:43:35 36° SW 23:43:35 36° SW
Cosmos 2082 3.6 23:38:55 10° NNW 23:44:35 76° WSW 23:48:10 23° SSE
Cosmos 192 4.4 23:43:01 24° SSW 23:46:02 76° WNW 23:51:02 10° NNE
STARLINK-1373 3.9 23:43:45 10° W 23:47:47 68° N 23:51:49 10° ENE
STARLINK-33 4.3 23:49:37 25° ESE 23:49:37 25° ESE 23:51:40 10° E
Helios 1A 3.7 23:47:33 27° SSW 23:49:13 40° W 23:53:11 10° NNW
Cosmos 858 Rocket 4.5 23:45:22 10° NNW 23:50:40 78° WSW 23:53:52 24° SSE
EO 1 Delta rocket 4.2 23:45:47 10° N 23:51:06 65° WNW 23:53:51 25° SSW
STARLINK-26 4.0 23:51:18 31° SE 23:51:18 31° SE 23:54:19 10° E
STARLINK-1320 3.5 23:48:21 10° W 23:51:27 56° N 23:54:32 10° ENE
STARLINK-1322 3.5 23:48:42 10° W 23:51:48 56° N 23:54:53 10° ENE
STARLINK-1324 3.5 23:49:02 10° W 23:52:06 56° N 23:55:12 10° ENE
Meteor 2-1 Rocket 4.2 23:46:44 10° NNW 23:52:17 75° W 23:55:37 25° S
STARLINK-1390 3.9 23:48:18 10° W 23:52:20 67° N 23:56:23 10° ENE
STARLINK-1294 3.5 23:49:20 10° W 23:52:25 56° N 23:55:32 10° ENE
STARLINK-1261 3.5 23:49:43 10° W 23:52:48 56° N 23:55:54 10° ENE
STARLINK-1325 3.5 23:50:04 10° W 23:53:09 56° N 23:56:15 10° ENE
STARLINK-1333 3.5 23:50:27 10° W 23:53:31 56° N 23:56:37 10° ENE
ATLAS CENTAUR R/B 4.3 23:50:50 10° WNW 23:53:32 17° NNW 23:56:08 10° NNE
STARLINK-1334 3.6 23:50:44 10° W 23:53:49 56° N 23:56:54 10° ENE
STARLINK-1326 3.6 23:51:03 10° W 23:54:08 56° N 23:57:13 10° ENE
STARLINK-1323 3.6 23:51:26 10° W 23:54:31 56° N 23:57:36 10° ENE
STARLINK-1349 3.6 23:51:44 10° W 23:54:48 56° N 23:57:54 10° ENE
STARLINK-1336 3.6 23:52:03 10° W 23:55:08 56° N 23:58:13 10° ENE
STARLINK-1331 3.6 23:52:26 10° W 23:55:32 56° N 23:58:36 10° ENE
STARLINK-1344 3.6 23:52:45 10° W 23:55:50 56° N 23:58:55 10° ENE
STARLINK-1343 3.6 23:53:08 10° W 23:56:13 55° N 23:59:18 10° ENE
STARLINK-1346 3.6 23:53:23 10° W 23:56:30 56° N 23:59:37 10° ENE
Cosmos 1437 4.2 23:55:39 21° WSW 23:56:46 26° WNW 23:59:24 10° N
